Weather History for KAUM - August, 2013

Change the Weather History Date:

Tuesday, August 13, 2013

  Actual Average Record
Temperature  
Mean Temperature 62 °F -  
Max Temperature 71 °F 75 °F 87 °F (2010)
Min Temperature 53 °F 57 °F 51 °F (2001)
Degree Days  
Heating Degree Days 3    
Growing Degree Days 12 (Base 50)    
Moisture  
Dew Point 47 °F    
Average Humidity 61    
Maximum Humidity 94    
Minimum Humidity 29    
Precipitation  
Precipitation 0.00 in - - ()
Sea Level Pressure  
Sea Level Pressure 30.15 in    
Wind  
Wind Speed 3 mph (NE)    
Max Wind Speed 10 mph    
Max Gust Speed 16 mph    
Visibility 10 miles    
Events      
Averages and records for this station are not official NWS values.
T = Trace of Precipitation, MM = Missing Value Source: NWS Daily Summary

Daily Weather History Graph

Daily Weather History Graph

Search for Another Location

Airport or City:

Trip Planner

Search our weather history database for the weather conditions in past years. The results will help you decide how hot, cold, wet, or windy it might be!

Date:

Astronomy

Aug. 13, 2013 Rise Set
Actual Time 6:14 AM CDT 8:17 PM CDT
Civil Twilight 5:43 AM CDT 8:49 PM CDT
Nautical Twilight 5:04 AM CDT 9:27 PM CDT
Astronomical Twilight 4:22 AM CDT 10:09 PM CDT
Moon 1:24 PM CDT (8/13) 11:37 PM CDT (8/13)
Length of Visible Light 15h 06m
Length of Day
14h 03m
Waxing Crescent, 42% of the Moon is Illuminated
Aug 13
Waxing Crescent
Aug 14
First Quarter
Aug 20
Full
Aug 28
Last Quarter
Sep 5
New

Hourly Weather History & Observations

Time (CDT) Temp. Dew Point Humidity Pressure Visibility Wind Dir Wind Speed Gust Speed Precip Events Conditions
12:17 AM 60.8 °F 55.4 °F 82% 30.08 in 10.0 mi Calm Calm - N/A   Scattered Clouds
12:36 AM 60.8 °F 55.4 °F 82% 30.08 in 10.0 mi Calm Calm - N/A   Mostly Cloudy
12:56 AM 60.8 °F 55.4 °F 82% 30.08 in 10.0 mi Calm Calm - N/A   Mostly Cloudy
1:17 AM 60.8 °F 55.4 °F 82% 30.08 in 10.0 mi Calm Calm - N/A   Overcast
1:36 AM 60.8 °F 55.4 °F 82% 30.09 in 10.0 mi NNE 3.5 mph - N/A   Scattered Clouds
1:56 AM 60.8 °F 55.4 °F 82% 30.09 in 10.0 mi NNE 4.6 mph - N/A   Scattered Clouds
2:17 AM 60.8 °F 55.4 °F 82% 30.08 in 10.0 mi NE 3.5 mph - N/A   Scattered Clouds
2:36 AM 59.0 °F 55.4 °F 88% 30.09 in 10.0 mi ENE 4.6 mph - N/A   Clear
2:56 AM 57.2 °F 53.6 °F 88% 30.09 in 10.0 mi ENE 5.8 mph - N/A   Scattered Clouds
3:16 AM 57.2 °F 53.6 °F 88% 30.09 in 10.0 mi ENE 6.9 mph - N/A   Scattered Clouds
3:37 AM 57.2 °F 53.6 °F 88% 30.09 in 10.0 mi ENE 5.8 mph - N/A   Clear
3:56 AM 57.2 °F 51.8 °F 82% 30.09 in 10.0 mi ENE 5.8 mph - N/A   Clear
4:16 AM 57.2 °F 51.8 °F 82% 30.10 in 10.0 mi NE 3.5 mph - N/A   Clear
4:37 AM 55.4 °F 51.8 °F 88% 30.10 in 10.0 mi Calm Calm - N/A   Clear
4:56 AM 55.4 °F 51.8 °F 88% 30.10 in 10.0 mi NE 3.5 mph - N/A   Clear
5:16 AM 55.4 °F 51.8 °F 88% 30.10 in 10.0 mi Calm Calm - N/A   Clear
5:37 AM 53.6 °F 51.8 °F 94% 30.11 in 10.0 mi Calm Calm - N/A   Clear
5:56 AM 53.6 °F 51.8 °F 94% 30.11 in 10.0 mi Calm Calm - N/A   Clear
6:16 AM 53.6 °F 51.8 °F 94% 30.12 in 10.0 mi NE 3.5 mph - N/A   Scattered Clouds
6:36 AM 53.6 °F 51.8 °F 94% 30.13 in 10.0 mi Calm Calm - N/A   Scattered Clouds
6:56 AM 53.6 °F 51.8 °F 94% 30.13 in 10.0 mi Calm Calm - N/A   Scattered Clouds
7:16 AM 55.4 °F 51.8 °F 88% 30.14 in 10.0 mi Calm Calm - N/A   Scattered Clouds
7:36 AM 55.4 °F 51.8 °F 88% 30.14 in 10.0 mi ENE 4.6 mph - N/A   Scattered Clouds
7:56 AM 57.2 °F 51.8 °F 82% 30.14 in 10.0 mi ENE 5.8 mph - N/A   Clear
8:16 AM 57.2 °F 50.0 °F 77% 30.14 in 10.0 mi ENE 6.9 mph - N/A   Clear
8:36 AM 59.0 °F 50.0 °F 72% 30.15 in 10.0 mi NE 8.1 mph - N/A   Scattered Clouds
8:56 AM 60.8 °F 50.0 °F 68% 30.16 in 10.0 mi ENE 9.2 mph - N/A   Clear
9:16 AM 60.8 °F 48.2 °F 63% 30.16 in 10.0 mi NE 9.2 mph - N/A   Clear
9:36 AM 62.6 °F 48.2 °F 59% 30.17 in 10.0 mi ENE 8.1 mph - N/A   Clear
9:56 AM 64.4 °F 46.4 °F 52% 30.17 in 10.0 mi NE 9.2 mph - N/A   Clear
10:16 AM 64.4 °F 46.4 °F 52% 30.18 in 10.0 mi NE 6.9 mph - N/A   Clear
10:36 AM 66.2 °F 44.6 °F 46% 30.19 in 10.0 mi ENE 6.9 mph - N/A   Clear
10:56 AM 66.2 °F 42.8 °F 43% 30.19 in 10.0 mi ENE 8.1 mph - N/A   Clear
11:16 AM 66.2 °F 42.8 °F 43% 30.19 in 10.0 mi NE 8.1 mph - N/A   Clear
11:36 AM 66.2 °F 42.8 °F 43% 30.20 in 10.0 mi East 8.1 mph - N/A   Clear
11:56 AM 68.0 °F 42.8 °F 40% 30.20 in 10.0 mi NE 6.9 mph - N/A   Clear
12:16 PM 68.0 °F 42.8 °F 40% 30.19 in 10.0 mi NNE 4.6 mph - N/A   Clear
12:36 PM 69.8 °F 39.2 °F 33% 30.19 in 10.0 mi North 3.5 mph - N/A   Clear
12:56 PM 69.8 °F 39.2 °F 33% 30.19 in 10.0 mi North 6.9 mph - N/A   Scattered Clouds
1:16 PM 69.8 °F 39.2 °F 33% 30.19 in 10.0 mi North 3.5 mph 16.1 mph N/A   Clear
1:37 PM 69.8 °F 39.2 °F 33% 30.19 in 10.0 mi NE 5.8 mph - N/A   Scattered Clouds
1:56 PM 69.8 °F 39.2 °F 33% 30.19 in 10.0 mi North 8.1 mph - N/A   Scattered Clouds
2:16 PM 69.8 °F 37.4 °F 31% 30.19 in 10.0 mi NNW 9.2 mph - N/A   Scattered Clouds
2:37 PM 71.6 °F 39.2 °F 31% 30.19 in 10.0 mi NE 9.2 mph - N/A   Scattered Clouds
2:56 PM 71.6 °F 37.4 °F 29% 30.19 in 10.0 mi NNE 10.4 mph - N/A   Scattered Clouds
3:16 PM 71.6 °F 39.2 °F 31% 30.18 in 10.0 mi NNE 5.8 mph - N/A   Scattered Clouds
3:37 PM 71.6 °F 39.2 °F 31% 30.18 in 10.0 mi NNE 4.6 mph - N/A   Scattered Clouds
3:56 PM 69.8 °F 39.2 °F 33% 30.17 in 10.0 mi NNE 6.9 mph - N/A   Scattered Clouds
4:16 PM 69.8 °F 39.2 °F 33% 30.17 in 10.0 mi NNE 5.8 mph - N/A   Scattered Clouds
4:36 PM 71.6 °F 39.2 °F 31% 30.17 in 10.0 mi NE 6.9 mph - N/A   Scattered Clouds
4:56 PM 69.8 °F 37.4 °F 31% 30.17 in 10.0 mi NNW 6.9 mph - N/A   Mostly Cloudy
5:16 PM 68.0 °F 41.0 °F 37% 30.17 in 10.0 mi North 4.6 mph - N/A   Scattered Clouds
5:37 PM 69.8 °F 37.4 °F 31% 30.17 in 10.0 mi North 6.9 mph - N/A   Clear
5:56 PM 69.8 °F 39.2 °F 33% 30.16 in 10.0 mi NE 6.9 mph - N/A   Scattered Clouds
6:16 PM 69.8 °F 39.2 °F 33% 30.16 in 10.0 mi North 3.5 mph - N/A   Mostly Cloudy
6:37 PM 69.8 °F 41.0 °F 35% 30.15 in 10.0 mi ENE 8.1 mph - N/A   Mostly Cloudy
6:56 PM 69.8 °F 41.0 °F 35% 30.15 in 10.0 mi NE 3.5 mph - N/A   Clear
7:16 PM 69.8 °F 41.0 °F 35% 30.15 in 10.0 mi North 4.6 mph - N/A   Clear
7:36 PM 68.0 °F 42.8 °F 40% 30.16 in 10.0 mi Calm Calm - N/A   Clear
7:56 PM 66.2 °F 44.6 °F 46% 30.16 in 10.0 mi Calm Calm - N/A   Clear
8:17 PM 64.4 °F 46.4 °F 52% 30.16 in 10.0 mi Calm Calm - N/A   Clear
8:36 PM 62.6 °F 46.4 °F 55% 30.16 in 10.0 mi Calm Calm - N/A   Clear
8:56 PM 60.8 °F 51.8 °F 72% 30.17 in 10.0 mi Calm Calm - N/A   Clear
9:17 PM 59.0 °F 48.2 °F 67% 30.17 in 10.0 mi Calm Calm - N/A   Clear
9:36 PM 57.2 °F 50.0 °F 77% 30.18 in 10.0 mi Calm Calm - N/A   Clear
9:56 PM 57.2 °F 48.2 °F 72% 30.18 in 10.0 mi Calm Calm - N/A   Clear
10:17 PM 57.2 °F 50.0 °F 77% 30.18 in 10.0 mi Calm Calm - N/A   Clear
10:36 PM 55.4 °F 48.2 °F 77% 30.19 in 10.0 mi Calm Calm - N/A   Clear
10:56 PM 55.4 °F 48.2 °F 77% 30.19 in 10.0 mi Calm Calm - N/A   Scattered Clouds
11:17 PM 55.4 °F 48.2 °F 77% 30.19 in 10.0 mi Calm Calm - N/A   Scattered Clouds
11:36 PM 55.4 °F 50.0 °F 82% 30.20 in 10.0 mi Calm Calm - N/A   Scattered Clouds
11:56 PM 53.6 °F 48.2 °F 82% 30.20 in 10.0 mi Calm Calm - N/A   Scattered Clouds